Theta_e
354 354 355 356 356 359 360 358 355 357 351 341 339 345 346 347 349 349 351 350 351 351 348 348 347 347 348 350 352 351 351 353 353 352 351 348 347 347 347 348 349 348 348 348 348 348 347 347 346 345 345 346 345 344 343 343 343 343 343 343 344 345 343 343 342 342 342 342 341 341 340 338 336 336 336 335 333 333 333 333 334 334 333 331 331 331 333 334 335 336 337 338 338 338 338 336 335
357 358 358 358 358 359 359 357 356 356 344 337 341 344 347 348 349 350 351 351 352 351 349 349 349 350 349 349 349 349 350 352 351 350 349 347 347 347 347 348 348 348 348 348 347 346 346 346 345 344 344 345 345 343 343 342 343 343 343 342 343 343 342 342 341 341 341 342 342 341 341 339 337 336 336 334 332 333 333 334 335 334 333 331 331 332 334 335 336 337 337 338 338 338 338 336 336
358 359 359 358 360 359 357 356 351 346 341 340 343 346 348 349 350 350 349 349 351 350 350 349 350 350 349 350 351 351 351 350 349 348 348 347 347 347 347 347 348 348 348 348 347 346 346 345 344 344 343 345 344 343 343 342 342 342 342 342 342 342 342 342 341 342 342 342 342 342 341 340 339 337 336 335 333 333 334 334 333 333 332 330 330 333 335 336 336 337 337 338 338 338 337 335 336
357 358 359 359 359 358 360 365 360 345 338 341 344 347 348 349 351 349 349 349 350 349 349 349 350 349 349 351 351 350 351 350 349 348 348 347 346 347 347 347 348 348 348 348 346 346 345 345 344 344 343 344 343 343 342 342 343 342 342 342 342 342 343 342 342 342 342 342 342 342 341 341 340 339 338 336 335 334 334 333 333 332 331 330 332 335 336 337 337 337 338 338 337 337 335 335 336
355 355 357 358 358 357 361 364 360 347 336 341 346 347 348 347 348 347 348 348 347 348 348 349 349 348 348 349 350 350 350 350 348 347 347 347 346 347 347 347 348 348 348 347 346 346 345 345 345 345 344 342 342 342 342 342 342 342 343 343 343 343 343 342 342 342 342 341 341 341 340 340 340 339 339 338 336 334 333 333 332 331 332 333 335 337 337 337 337 337 337 337 337 336 335 335 336
353 354 355 357 356 354 357 350 341 339 336 342 347 346 347 345 346 347 347 348 347 348 348 348 348 348 348 349 349 350 350 349 347 346 346 346 346 347 348 348 348 347 347 347 346 346 345 345 345 344 343 342 342 342 342 343 343 344 344 343 343 343 342 342 342 341 341 341 340 340 339 338 338 337 338 338 336 335 335 333 332 333 335 336 337 337 337 336 337 337 337 337 336 336 336 336 337
352 354 353 356 357 352 351 341 334 337 336 342 347 345 345 345 347 348 347 348 347 346 346 347 346 349 351 350 349 349 349 347 346 346 346 346 347 348 348 347 347 346 347 347 345 345 345 344 344 343 343 343 343 344 344 344 344 344 343 342 342 342 342 341 341 340 340 340 340 340 339 339 338 337 337 338 337 336 336 334 334 335 336 337 338 337 336 336 336 337 337 336 335 336 336 337 338
351 352 352 355 357 354 350 338 336 340 340 343 347 346 346 346 347 347 347 347 348 347 348 348 346 350 352 350 349 349 348 346 345 345 346 346 346 348 347 346 346 346 346 346 345 345 345 344 344 344 343 344 344 344 344 344 343 342 342 341 341 341 341 341 341 340 340 340 340 340 341 341 340 339 339 338 338 337 337 336 336 336 337 338 338 336 336 336 336 336 336 336 336 337 337 337 338
349 351 351 351 352 351 347 338 336 339 343 346 346 346 346 346 347 347 348 349 350 350 350 349 346 351 351 349 350 349 348 346 345 345 346 345 346 346 346 345 345 346 346 346 345 345 344 344 343 344 343 344 344 343 343 342 342 342 342 342 342 342 342 342 342 341 341 341 341 341 341 341 340 339 339 339 339 338 338 337 337 338 338 337 336 335 335 335 335 336 336 337 337 337 337 337 338
349 351 348 350 354 346 337 336 335 337 341 345 347 346 347 347 348 348 350 350 350 351 351 349 349 351 351 350 351 348 347 346 345 346 345 345 345 345 346 346 345 346 346 345 346 346 345 345 344 343 344 345 344 343 343 342 343 343 343 343 343 343 343 343 343 342 342 341 342 341 341 341 340 340 340 339 339 338 338 338 338 338 336 334 334 333 333 335 337 337 338 338 339 338 337 338 339
348 347 345 349 352 340 332 335 337 338 339 343 346 346 348 348 349 350 350 352 351 352 350 349 350 350 351 352 351 347 346 346 345 345 345 345 345 345 345 345 345 345 345 345 346 346 346 346 345 345 345 345 344 344 344 343 344 344 344 343 343 343 342 343 343 342 342 342 342 341 342 342 341 341 341 340 340 339 338 337 336 334 333 333 333 333 334 336 337 337 338 339 339 339 339 338 339
347 346 357 357 349 342 335 337 339 342 343 345 347 346 349 348 350 351 351 353 352 351 349 349 350 349 351 352 350 346 345 346 345 345 345 345 345 345 345 345 345 345 346 346 345 346 346 345 345 345 345 345 344 345 345 345 344 344 343 342 342 341 341 342 343 343 342 342 341 341 340 340 339 339 338 338 338 337 336 334 332 332 333 334 334 335 336 336 337 338 338 338 338 339 338 337 338
346 347 370 356 346 351 339 337 342 344 346 347 348 347 349 349 351 351 351 352 351 352 350 349 349 349 351 352 350 346 345 346 345 345 344 344 344 345 344 344 345 345 346 346 345 345 345 344 344 344 344 345 345 345 345 345 344 344 343 342 341 341 341 341 341 341 341 340 338 338 338 337 336 335 334 334 334 333 332 332 332 333 335 335 335 337 337 338 338 338 338 338 338 337 337 337 338
345 343 365 353 346 357 342 338 341 340 343 345 348 348 349 349 350 350 350 351 350 352 351 349 347 349 352 352 351 347 346 347 345 344 343 344 344 344 344 344 344 344 345 346 345 346 345 344 344 344 344 345 345 345 345 344 344 344 343 342 341 341 340 339 340 340 340 339 338 337 338 337 336 334 333 333 333 333 333 333 335 336 337 337 337 337 337 338 337 338 339 339 339 338 338 339 339
343 338 360 356 346 349 342 340 338 337 339 342 348 348 348 349 350 350 349 351 351 351 349 349 348 349 351 351 352 348 347 348 347 345 344 343 343 343 344 344 344 344 346 345 346 346 345 345 344 344 344 344 345 345 344 344 344 343 342 341 340 339 339 339 339 339 339 339 338 337 337 337 336 336 335 335 335 335 336 337 338 339 339 339 340 340 339 338 338 338 340 340 340 339 339 339 339
342 338 355 355 343 341 340 340 336 337 338 340 347 346 348 348 349 349 348 350 351 350 349 349 348 346 348 349 349 347 348 350 350 349 347 345 343 343 343 343 343 344 346 345 345 345 345 345 345 344 345 345 345 344 344 344 344 343 342 340 340 339 339 339 338 338 338 338 338 338 336 336 336 336 336 336 337 337 338 339 339 338 338 340 341 342 341 340 341 341 342 342 340 339 340 340 339
341 340 350 348 343 341 341 341 337 337 338 339 344 346 348 347 348 349 348 349 349 350 349 349 348 344 346 348 347 347 349 350 351 351 350 348 345 343 342 342 343 344 345 345 345 344 344 345 344 344 345 345 344 345 344 344 343 343 341 340 340 340 340 339 338 338 337 337 337 337 335 335 335 335 337 337 338 338 337 337 337 337 338 339 340 342 342 342 342 343 343 342 341 341 341 339 338
342 346 349 344 344 344 343 343 338 339 339 339 344 347 348 347 348 348 348 348 348 350 349 349 349 347 347 348 348 349 350 350 352 351 350 348 345 344 342 341 342 343 344 344 344 343 343 343 344 344 344 344 344 345 344 343 343 343 342 340 340 340 341 340 339 338 337 337 336 334 333 334 336 338 339 340 340 339 338 337 337 337 338 339 340 342 343 342 342 343 343 341 341 341 340 338 336
342 346 347 345 346 343 340 340 338 339 340 340 344 346 346 346 348 347 347 348 348 349 349 350 350 350 350 349 350 350 350 351 352 351 349 346 344 343 341 341 341 342 342 343 343 342 342 343 344 344 344 344 344 344 342 342 343 343 341 340 341 341 342 341 339 339 338 339 337 334 332 334 337 339 341 340 340 340 339 338 338 337 337 338 340 342 342 342 341 342 342 341 341 341 339 337 336
341 342 346 346 343 338 338 338 338 339 340 341 342 344 346 346 347 347 347 348 349 349 349 350 351 352 352 351 351 351 351 352 352 351 349 346 344 342 342 343 342 342 341 341 341 340 341 342 342 343 343 343 343 343 342 341 342 342 340 340 341 341 342 342 340 339 339 339 339 337 335 335 337 338 340 339 339 340 339 338 338 339 339 339 339 340 340 341 341 341 341 340 340 340 338 337 336
340 341 346 343 337 338 339 339 338 340 340 341 340 343 346 346 347 347 348 350 350 349 349 349 350 351 351 352 351 352 352 352 352 351 350 348 347 344 344 344 343 342 341 340 340 339 340 341 342 342 342 342 342 342 341 341 341 341 340 340 341 340 341 342 340 339 338 338 339 339 338 339 339 339 339 339 340 341 339 339 339 340 339 338 338 338 338 340 340 340 339 339 340 339 339 338 338
338 338 339 337 335 338 340 339 339 339 340 340 341 344 346 347 347 347 348 351 350 349 349 348 348 348 349 350 351 353 353 352 352 351 350 350 349 348 346 345 343 342 341 341 340 340 340 340 340 341 341 342 341 341 340 340 340 340 340 340 341 340 340 341 339 337 339 341 341 341 340 340 340 340 340 340 340 340 340 340 340 340 338 337 337 336 337 339 339 339 339 339 339 338 338 339 339
338 337 333 333 335 338 339 339 339 339 339 339 341 345 346 346 347 347 348 349 349 348 349 348 347 348 347 349 351 352 352 352 352 351 351 350 350 351 348 344 342 342 341 341 340 340 340 341 340 340 340 340 340 340 340 340 341 341 341 341 340 340 340 340 340 339 340 342 342 342 341 340 341 341 341 341 341 341 342 342 340 339 338 338 338 337 337 338 339 339 338 337 337 337 337 338 338
335 336 334 334 337 338 339 338 339 340 340 340 343 345 346 347 348 348 348 348 348 349 349 347 348 349 349 349 351 351 351 351 351 351 350 349 348 349 348 344 341 341 341 340 340 340 339 340 340 340 341 341 340 341 341 341 342 342 342 342 341 341 341 340 341 342 342 343 343 342 342 342 342 342 342 342 342 341 342 342 341 339 338 338 338 338 337 337 337 337 337 337 336 337 337 338 339
332 335 335 336 338 339 339 339 339 341 342 343 346 346 346 347 348 348 349 349 348 349 348 348 349 350 350 350 350 350 350 350 351 351 349 347 346 346 347 345 343 342 340 340 341 341 340 340 341 341 341 341 341 341 342 342 342 343 343 342 342 342 342 343 344 344 344 344 345 344 344 344 344 344 344 344 343 341 341 342 341 340 338 337 336 336 335 335 335 336 336 337 337 338 339 340 340
332 333 335 336 338 340 340 341 341 344 345 345 346 346 347 346 349 350 349 349 349 349 348 349 349 349 350 350 350 350 350 351 350 350 349 347 346 346 346 345 345 343 342 342 342 342 342 342 342 342 342 342 342 343 343 343 343 344 343 342 343 343 344 345 346 345 345 345 345 345 346 346 346 347 347 346 344 342 342 341 340 340 339 338 337 336 336 336 337 338 339 340 341 342 342 342 342
330 333 336 338 341 341 341 342 343 345 345 346 348 348 348 346 351 354 350 349 349 349 349 349 350 349 350 350 350 350 350 350 349 349 349 348 348 347 345 344 343 343 342 342 342 342 342 343 342 342 343 343 344 346 345 345 345 345 344 344 345 346 345 346 345 345 345 345 345 346 347 347 347 347 347 346 345 344 343 341 341 341 340 339 338 338 338 339 339 341 343 343 343 344 343 341 340
330 336 340 341 342 342 342 343 344 347 346 346 347 347 347 347 352 354 350 349 349 349 350 350 350 350 350 350 350 350 350 350 348 348 349 349 349 348 345 342 341 342 342 342 342 342 343 343 343 343 344 345 345 346 346 346 346 345 345 345 346 346 345 345 345 345 345 345 346 346 346 346 346 346 346 346 345 344 343 342 341 341 340 339 340 341 341 342 342 343 345 344 344 344 341 338 337
333 340 343 343 343 344 343 344 345 347 347 346 346 348 349 350 352 351 350 350 349 350 351 350 350 350 350 350 350 350 349 349 349 349 349 348 348 348 347 345 344 345 345 345 344 344 345 345 343 342 344 345 345 344 344 344 344 346 346 346 347 347 346 346 346 347 348 348 347 347 346 345 345 345 346 345 344 344 343 343 342 342 342 342 343 344 344 345 343 343 343 342 341 341 337 334 334
333 337 343 345 344 345 343 343 346 346 347 345 347 350 350 351 350 350 351 350 351 350 351 351 351 350 350 350 349 349 349 349 350 349 348 348 348 349 348 346 346 346 345 346 346 346 347 347 344 342 342 344 343 342 343 342 343 346 347 347 348 348 348 348 348 348 348 349 349 348 347 347 347 347 346 345 345 344 343 343 343 344 344 344 345 344 343 342 341 341 341 339 338 337 334 333 333
335 335 340 344 341 343 343 343 345 347 346 343 348 352 350 351 349 350 351 350 351 351 351 351 351 351 351 350 350 349 349 348 349 348 348 348 348 348 347 347 346 346 346 345 345 347 347 347 345 342 341 343 342 342 341 340 342 345 346 347 349 349 349 349 349 348 348 349 349 349 349 349 349 349 348 348 347 346 345 345 345 344 343 342 343 341 340 339 339 340 339 337 335 334 333 332 332
336 332 333 338 339 341 341 340 343 348 345 342 349 351 348 350 349 350 351 350 351 350 350 351 350 351 351 351 351 349 349 349 349 349 347 347 348 348 347 347 347 347 347 346 346 347 346 346 345 343 343 343 342 342 341 340 342 345 346 347 348 349 350 350 350 349 350 350 349 348 348 349 350 349 348 348 348 347 346 345 344 342 340 339 339 338 338 337 338 338 336 335 334 333 333 332 332
336 333 330 332 336 338 337 337 340 344 344 342 347 350 348 350 348 349 351 350 350 350 350 350 350 351 351 351 351 349 348 349 349 349 348 348 348 348 348 348 347 347 347 347 347 347 347 347 346 346 345 345 344 344 342 342 344 346 347 348 348 349 351 351 351 351 351 351 349 347 348 349 350 349 348 347 346 346 346 344 342 340 339 338 338 338 337 337 336 335 335 334 334 334 334 333 333
333 334 330 330 335 334 334 338 338 340 344 342 345 349 350 349 347 348 349 349 348 348 347 348 349 349 349 350 349 348 348 348 349 348 348 349 349 348 348 348 347 347 347 347 348 347 347 348 348 348 348 347 347 346 345 344 346 347 348 349 348 350 351 351 351 350 350 350 349 347 348 349 348 349 349 347 345 343 342 341 340 339 338 338 337 336 335 334 333 332 332 333 333 334 334 334 334
331 332 329 328 333 333 333 338 338 339 343 343 346 349 349 348 348 347 347 347 347 346 346 347 347 348 348 348 348 348 349 349 349 349 348 348 348 347 348 348 347 347 347 348 348 348 348 347 348 348 349 349 349 349 347 347 348 348 348 349 349 351 351 351 350 349 349 349 348 346 347 348 348 348 346 343 340 337 336 337 338 337 335 334 333 333 333 333 332 331 331 333 334 334 335 336 336
334 334 330 329 330 331 335 338 339 341 343 344 347 348 348 349 348 347 347 347 346 345 346 346 347 347 347 347 347 348 349 348 348 347 347 347 346 346 346 347 347 347 347 348 348 348 348 348 348 348 349 350 350 351 350 349 350 349 348 348 349 349 349 349 349 349 348 347 346 346 347 347 347 344 340 336 335 333 334 335 334 332 330 329 330 333 334 334 333 333 334 334 335 336 337 338 339
335 333 332 332 329 330 336 338 339 340 342 344 346 346 347 349 348 347 346 347 346 345 346 347 347 346 346 346 346 347 347 347 347 346 346 347 345 345 346 347 347 347 347 347 348 348 348 348 348 348 348 349 351 351 350 350 350 349 348 347 348 348 348 348 347 347 347 347 347 347 347 345 342 339 335 335 334 333 334 335 332 331 330 331 333 336 336 334 333 334 334 333 333 334 336 338 338
333 331 333 332 330 331 335 338 339 339 342 344 346 346 346 348 347 347 347 346 346 345 346 347 347 347 346 346 345 345 345 346 347 346 347 348 347 345 346 347 347 347 347 347 348 348 348 349 349 348 348 348 350 349 349 349 349 348 347 346 346 346 347 347 346 346 347 348 346 345 344 341 337 336 335 334 332 331 335 336 333 331 333 334 335 335 333 332 332 333 333 331 330 331 332 333 334
332 332 333 331 333 335 333 338 340 339 343 345 346 346 346 347 346 345 346 346 346 346 347 348 348 348 347 346 346 345 347 348 348 348 348 349 348 347 347 348 349 347 347 348 348 348 349 349 349 349 348 348 348 348 348 348 348 347 346 346 346 346 347 346 346 347 346 345 343 341 340 338 336 336 335 333 331 330 333 334 332 330 329 330 332 332 331 331 331 331 330 327 327 327 328 331 332
331 332 331 331 336 334 330 335 338 340 343 343 347 348 346 346 346 346 345 345 347 346 346 348 348 348 348 347 347 346 348 350 349 349 349 349 349 348 348 349 350 349 348 349 349 349 349 350 349 349 348 347 347 347 347 347 347 345 345 345 346 347 347 346 344 343 344 343 341 340 338 337 337 335 333 333 332 331 332 333 331 328 328 329 330 331 330 329 327 326 325 324 323 323 325 329 331
331 331 330 332 335 333 333 334 337 344 344 342 347 346 346 350 348 347 345 344 346 346 345 347 348 349 348 348 347 347 349 350 350 350 350 350 349 349 350 350 349 348 348 349 350 350 349 349 349 349 348 346 347 346 345 345 344 344 344 345 347 348 347 344 342 341 342 342 340 339 338 338 337 335 334 334 333 333 333 332 328 325 327 330 329 329 328 326 323 322 322 322 322 323 325 328 331
329 330 332 333 334 335 337 335 336 340 338 341 344 339 344 353 349 347 347 345 346 345 344 345 347 349 349 349 348 347 348 349 349 350 351 351 350 349 350 350 349 347 347 349 350 349 348 348 348 349 348 346 346 345 343 343 343 342 343 344 344 344 342 340 339 340 341 341 340 338 338 338 336 335 335 333 333 332 330 327 324 324 327 328 327 327 324 322 321 321 322 323 324 325 325 327 329
326 333 335 331 333 335 336 335 335 333 334 341 342 338 343 347 344 346 347 346 347 345 344 344 345 348 349 349 349 348 348 349 350 351 352 351 350 350 350 350 348 348 347 348 350 349 348 348 348 350 348 345 344 342 341 342 341 340 340 341 339 339 340 339 338 339 340 340 339 338 337 336 335 334 333 333 332 331 329 329 328 328 328 327 325 324 321 321 322 323 324 325 325 326 327 327 328
328 337 335 332 332 332 334 335 334 334 338 341 341 343 344 340 341 345 346 346 347 346 345 344 343 346 348 349 349 349 348 350 351 352 352 350 349 350 350 349 349 349 349 350 350 350 349 349 349 349 346 343 341 340 340 341 339 336 335 336 337 339 340 340 340 340 339 339 338 338 336 334 332 331 332 332 330 330 332 334 333 330 329 329 327 324 322 322 324 325 325 325 325 326 327 327 328
333 335 332 331 330 330 334 334 332 336 339 337 339 341 340 343 349 347 344 346 347 346 346 344 343 344 347 348 349 349 349 350 352 351 351 350 349 349 349 350 350 351 352 352 352 351 351 350 348 346 344 340 339 338 338 338 335 334 333 333 335 338 339 340 340 339 339 339 338 337 335 332 330 330 332 330 328 331 335 336 335 332 332 332 331 326 324 324 325 325 325 324 325 326 327 327 329
332 331 328 329 331 330 333 335 334 334 335 334 337 335 334 343 351 344 341 344 344 346 346 343 343 344 345 347 348 349 349 350 351 351 351 350 350 349 350 351 352 352 353 353 352 351 350 348 345 343 341 338 338 338 337 335 332 332 333 332 334 336 337 338 338 338 338 338 337 336 333 328 327 331 332 328 326 332 336 335 335 335 334 334 331 327 324 325 326 325 324 324 324 325 327 328 329
329 330 326 327 337 339 339 345 339 331 332 334 335 335 332 336 342 341 340 342 343 344 345 343 343 343 345 347 347 349 350 350 351 352 351 351 351 351 351 352 353 353 354 353 352 350 349 346 341 339 338 336 336 336 334 331 329 329 329 329 331 332 333 332 332 333 335 336 336 333 327 325 328 332 332 327 326 332 334 334 335 335 334 332 328 325 324 325 325 324 323 323 324 325 327 328 329
327 331 327 324 336 341 337 339 332 326 331 335 334 335 332 331 339 343 341 341 342 342 344 345 343 343 345 346 347 349 349 350 352 352 352 353 352 353 353 353 354 354 354 353 352 350 348 344 338 337 336 334 334 333 330 329 328 327 327 326 327 326 326 325 323 325 328 329 328 325 323 325 329 329 327 325 328 331 332 332 333 332 330 328 326 323 323 323 323 323 322 323 324 324 326 329 330
326 331 327 321 327 330 327 329 328 326 331 334 333 333 332 332 339 344 342 340 341 340 342 343 342 343 344 346 347 348 350 351 352 352 353 353 353 354 354 354 355 355 353 352 351 349 345 340 336 335 335 332 331 331 328 327 327 325 325 324 323 321 320 318 317 319 320 320 320 320 320 323 323 323 322 323 325 327 328 329 329 328 327 325 324 322 321 322 321 321 322 324 325 325 326 327 328
326 327 326 320 323 322 322 328 327 325 329 329 329 334 333 333 339 344 343 340 339 339 339 341 341 343 344 346 346 347 350 351 352 352 352 353 353 353 354 354 354 354 352 350 350 347 341 337 335 334 333 331 330 329 328 327 326 325 324 323 321 319 318 316 316 316 316 317 317 317 316 317 318 319 321 320 320 322 325 327 326 325 325 323 322 321 321 321 321 322 323 324 325 326 325 325 326
328 332 330 324 327 327 323 327 325 323 327 325 326 335 333 330 340 348 341 337 340 338 338 340 340 342 343 345 346 347 349 351 352 352 352 352 353 353 354 354 353 352 350 348 346 343 338 334 333 331 330 329 328 328 328 327 326 325 325 324 321 319 318 317 316 315 316 315 315 315 315 316 317 318 318 318 320 322 323 325 324 323 323 322 322 322 321 321 321 322 322 322 323 324 325 325 325
326 333 329 323 331 333 325 327 331 328 324 324 327 336 341 338 343 350 342 337 340 339 338 339 339 342 343 344 346 346 348 350 352 352 352 352 353 354 354 353 352 351 349 347 344 340 336 333 331 329 326 327 327 327 327 327 326 326 325 324 321 320 319 317 316 315 315 315 315 316 316 316 317 317 317 317 319 321 322 323 323 322 323 322 322 322 321 322 322 322 323 322 321 323 323 324 324
328 326 325 326 332 332 325 325 333 328 322 328 329 330 338 337 337 350 348 341 342 342 340 339 338 341 343 344 345 346 347 349 350 352 351 352 353 354 354 352 351 350 348 347 343 338 334 332 331 328 326 326 327 328 328 327 327 327 326 324 321 320 320 318 316 315 315 315 315 316 316 317 317 317 316 316 318 321 322 322 323 322 322 321 321 321 321 321 322 323 323 323 322 322 323 324 324
330 322 326 330 328 333 334 327 328 326 324 331 329 325 330 330 335 352 352 346 348 346 342 340 339 341 342 344 345 345 347 348 349 350 350 351 352 352 353 352 350 348 346 344 342 339 334 331 330 329 326 326 326 327 328 328 328 328 327 324 321 321 320 319 317 316 315 315 316 317 317 317 317 318 318 319 320 321 321 322 322 321 320 321 323 323 323 322 322 322 322 322 322 323 324 325 326
327 324 328 329 323 327 331 326 325 325 324 329 329 329 332 333 342 350 346 353 354 344 344 344 341 342 342 343 345 344 347 348 349 350 350 351 352 352 352 352 351 349 346 344 343 341 337 333 331 330 327 326 326 328 329 329 329 330 329 326 322 321 321 319 318 316 315 316 316 317 317 317 319 320 320 321 320 320 322 324 325 323 322 324 326 326 326 325 325 325 325 325 324 324 325 326 326
326 326 326 328 328 328 326 325 326 325 326 330 330 327 331 342 358 355 346 359 354 343 346 345 341 342 341 343 345 344 346 348 349 350 350 351 352 352 351 351 351 349 346 344 343 342 340 335 333 332 330 330 331 331 331 331 331 333 334 330 325 323 322 320 319 318 316 316 316 317 317 319 322 323 323 323 320 319 323 327 328 327 327 328 328 328 328 328 328 328 328 327 327 326 326 327 327
324 324 323 324 326 328 327 327 328 327 330 334 330 326 337 356 366 359 350 352 347 343 345 343 340 341 341 342 344 343 345 346 347 349 349 350 351 351 352 351 351 350 349 347 345 344 342 339 336 334 333 334 334 333 333 333 334 337 337 333 327 324 322 322 322 320 317 316 317 317 318 321 324 325 325 325 322 322 325 328 328 328 328 328 328 328 328 328 328 328 329 328 328 328 327 327 327
325 324 325 325 324 326 324 323 326 329 330 334 331 323 337 362 363 358 355 349 344 343 342 341 340 339 341 343 342 343 345 345 346 347 347 349 350 351 351 352 351 352 351 349 346 343 343 342 339 336 335 335 334 334 333 333 336 341 340 335 329 324 323 324 326 324 319 316 317 317 319 324 325 326 326 326 327 327 328 329 328 328 328 328 329 329 329 328 328 329 329 329 329 328 328 328 328
Wind_Speed
13 13 11 10 9 8 6 4 1 0 3 4 2 3 3 3 4 4 5 5 3 2 6 12 14 12 9 9 10 10 9 4 2 2 5 13 19 19 20 21 21 24 25 25 25 25 25 25 27 28 28 28 27 26 26 26 26 26 25 25 24 23 22 22 21 21 20 19 19 18 18 18 17 17 16 16 15 15 14 13 12 11 11 10 9 9 8 7 7 7 7 6 5 4 4 5 5
14 13 11 9 9 6 3 4 1 2 4 5 3 2 3 4 4 4 4 3 3 7 16 19 17 15 14 15 12 8 10 8 6 12 17 22 23 21 22 23 22 24 25 26 25 26 26 26 27 27 27 27 27 27 26 25 25 25 25 24 24 23 22 21 21 20 19 19 18 17 17 17 17 16 16 16 16 15 14 13 12 11 10 9 9 8 8 7 7 7 6 5 4 3 4 5 4
13 13 12 9 8 6 2 1 2 3 4 4 3 2 4 5 5 5 5 7 11 18 22 19 17 13 11 10 6 5 5 8 16 21 23 24 25 25 25 24 23 24 26 26 26 26 27 27 27 27 28 27 27 26 25 25 24 24 24 24 23 22 21 21 20 19 18 17 17 16 16 16 16 16 16 16 15 15 13 13 12 11 10 9 8 8 7 7 6 5 4 3 3 3 4 4 4
12 11 10 8 5 4 1 2 2 4 4 4 2 1 4 7 7 7 10 13 13 17 18 13 10 7 9 10 7 8 7 10 20 24 24 24 27 28 26 25 24 24 26 27 27 27 27 28 27 27 27 28 27 26 26 25 24 24 23 23 22 21 20 19 18 17 16 16 16 16 15 15 15 15 15 15 14 13 13 12 11 10 9 8 8 7 6 5 4 4 3 3 3 3 4 4 4
12 10 8 8 3 1 0 2 2 4 4 4 3 2 5 8 9 8 10 13 10 11 12 9 7 9 13 9 4 6 9 14 21 25 26 25 27 28 27 25 24 25 26 27 27 27 27 28 28 27 27 27 27 27 26 26 25 24 23 22 21 20 19 18 18 17 16 16 16 15 15 14 14 14 14 14 14 13 12 11 10 9 8 7 7 6 5 4 3 3 2 3 3 3 3 3 3
13 12 8 8 4 3 0 3 3 4 2 4 6 5 7 9 10 11 14 15 12 11 12 11 12 14 13 9 8 10 10 14 21 25 28 28 28 28 26 25 25 26 26 27 27 27 28 28 28 27 26 26 26 26 25 25 24 23 22 21 20 19 18 18 17 16 16 15 15 15 14 14 14 14 14 13 13 12 11 10 9 8 7 7 6 5 4 3 2 2 2 2 3 2 3 3 3
10 10 7 6 5 2 2 4 4 3 0 4 8 8 8 10 14 15 13 13 12 13 15 17 21 19 9 6 11 8 5 13 23 25 28 29 28 27 26 26 26 26 26 26 27 27 27 28 28 27 26 26 25 24 24 23 22 22 21 20 19 18 18 17 16 16 15 15 14 14 14 14 13 13 13 12 11 11 10 9 8 7 7 6 5 4 3 2 1 1 2 2 2 2 2 2 2
9 8 5 3 1 2 3 4 3 3 2 4 9 11 12 15 18 14 9 8 9 10 15 17 19 16 5 4 7 5 9 18 23 25 28 29 28 27 27 28 27 27 26 26 27 27 27 28 28 28 27 25 24 23 22 22 21 21 20 19 18 18 17 16 16 16 15 15 14 14 13 13 12 12 11 11 10 10 9 9 8 7 6 5 4 2 1 1 1 2 2 2 2 3 3 2 1
10 7 3 2 1 3 3 3 2 4 5 7 10 13 17 19 18 15 9 8 9 11 13 11 7 9 8 10 9 7 13 18 24 26 27 28 28 28 27 28 28 28 27 26 26 26 27 27 27 26 26 24 23 22 22 21 21 21 20 19 18 17 17 16 16 15 14 14 13 13 12 12 11 11 11 10 10 9 9 8 8 7 5 4 2 1 0 1 2 2 3 3 3 4 3 3 2
9 8 3 1 1 4 3 3 3 4 6 9 10 15 17 17 18 17 13 9 11 12 8 6 6 14 15 11 8 7 14 21 25 26 25 27 27 28 28 28 27 28 27 27 26 25 26 25 25 24 24 23 22 21 21 21 20 20 19 18 17 16 15 15 15 14 14 13 13 12 11 11 10 10 10 9 9 9 8 8 7 5 4 2 1 1 1 1 2 3 4 4 5 4 4 4 4
6 8 5 2 3 3 3 3 4 4 7 8 9 15 18 20 20 16 15 12 11 13 13 12 13 21 17 9 7 10 19 24 25 25 25 26 25 27 28 27 27 27 27 27 27 26 25 24 24 23 23 23 21 21 20 20 19 18 17 16 15 14 14 14 14 13 13 13 12 12 11 10 10 9 9 9 8 8 8 7 6 5 4 3 2 1 0 1 2 3 5 6 6 5 5 5 6
4 3 3 4 3 2 3 4 5 5 8 8 7 12 19 23 18 12 15 13 13 16 14 10 14 21 13 5 9 16 24 25 24 25 25 24 25 26 26 27 27 26 27 26 27 27 25 25 23 23 23 22 21 20 19 19 18 17 16 15 14 14 13 13 13 12 12 12 12 11 10 9 9 8 8 8 8 8 8 7 6 5 4 3 2 2 2 3 3 4 6 6 7 7 7 7 7
7 2 4 3 2 3 3 4 5 6 6 6 8 14 22 20 16 17 16 15 17 13 7 12 23 20 9 8 15 21 25 25 25 25 25 24 24 24 25 26 26 26 26 25 26 26 25 25 24 23 22 21 20 18 18 18 17 16 15 14 14 13 13 12 12 12 11 11 11 10 10 9 9 9 8 8 8 7 7 6 4 3 3 3 3 3 3 4 5 5 6 7 8 8 8 8 8
8 1 4 3 2 3 4 5 5 6 3 5 12 18 19 14 20 27 22 16 9 9 13 20 27 18 11 12 15 23 26 25 26 25 25 24 23 23 24 24 25 25 25 25 24 24 24 24 24 23 21 20 19 18 18 17 16 15 14 13 13 13 13 13 12 12 11 11 11 10 10 10 9 9 9 8 7 6 5 4 3 3 2 3 3 3 4 5 5 6 7 8 8 8 8 8 8
9 1 4 3 2 2 3 5 5 6 4 5 14 19 13 13 25 28 27 18 5 18 23 19 20 12 14 15 16 29 28 26 25 24 25 23 23 22 23 23 23 24 23 23 23 23 24 24 23 23 22 20 19 18 18 16 15 14 14 13 13 13 13 13 13 12 12 11 11 11 10 10 9 9 8 8 7 6 5 4 4 3 3 3 4 4 5 5 5 6 7 7 7 7 7 7 8
11 3 5 2 2 2 3 5 6 6 4 7 16 19 12 14 23 18 19 19 16 25 18 17 16 3 18 21 22 34 29 27 25 22 23 22 23 21 22 22 22 22 21 22 22 23 24 23 23 23 22 21 20 19 18 16 15 15 14 14 13 13 13 13 13 12 12 11 11 11 11 10 9 9 8 8 7 6 5 5 4 4 4 4 5 6 6 6 6 5 6 6 6 6 6 6 8
8 2 3 1 2 3 3 6 6 7 7 10 17 20 15 10 14 11 13 21 27 22 8 15 12 4 23 23 25 34 27 28 25 22 23 22 23 22 22 22 22 23 20 21 22 23 23 22 22 22 21 20 20 19 18 17 16 16 15 14 14 14 14 14 13 13 12 11 11 11 11 11 10 9 8 7 6 6 5 4 4 4 5 6 6 7 8 7 7 6 5 5 5 6 6 7 9
5 2 2 1 3 4 4 6 7 9 9 12 18 22 20 13 14 17 16 19 24 16 8 13 7 9 23 22 29 31 26 28 26 25 23 23 25 23 24 22 23 23 22 22 22 22 22 22 22 21 21 21 20 19 18 18 17 16 15 15 14 14 14 14 14 13 12 12 11 11 10 10 8 7 6 5 5 5 5 5 5 5 6 6 6 8 8 7 7 6 5 5 6 7 7 8 9
5 3 3 4 4 5 6 10 11 13 15 15 19 23 22 18 21 23 16 14 17 13 11 13 13 17 21 25 31 27 28 29 26 27 24 24 26 25 25 23 23 22 22 23 22 22 21 21 21 21 22 21 20 19 18 17 17 16 15 15 15 14 14 13 13 12 11 11 10 9 9 8 7 6 5 5 5 5 5 5 6 6 6 6 6 6 7 7 7 6 5 4 6 8 8 9 10
6 5 3 6 7 5 8 16 18 21 24 18 17 21 20 23 27 22 16 14 13 11 15 17 18 22 26 29 30 28 30 28 27 26 24 25 24 25 25 23 24 22 22 22 21 21 20 20 20 21 21 20 20 18 18 16 16 16 15 15 15 14 13 12 12 11 11 10 10 9 9 8 7 7 7 6 6 6 6 6 6 7 7 6 6 5 5 5 5 5 4 5 7 8 9 10 11
4 6 5 7 8 5 10 21 22 26 30 22 19 19 17 24 26 22 21 14 5 11 23 28 28 31 32 32 31 32 31 28 29 26 25 25 23 24 23 22 22 21 22 21 21 21 20 20 20 20 20 19 19 18 17 16 15 15 14 14 14 13 12 12 11 11 11 10 10 9 9 9 8 8 8 8 7 6 6 7 7 7 7 5 5 5 4 5 5 5 5 5 6 7 8 9 9
2 7 11 11 12 7 14 24 25 27 29 23 21 18 19 23 21 26 29 13 11 22 28 32 37 38 36 36 35 33 32 32 32 29 27 25 23 23 21 21 21 21 23 22 22 21 20 20 19 20 19 19 18 17 16 15 15 14 13 13 13 12 11 12 11 11 11 10 10 10 10 9 9 8 8 8 7 6 6 6 6 7 6 5 5 5 4 5 5 5 5 4 5 5 7 8 8
3 8 10 16 21 13 16 25 28 29 26 20 20 21 25 21 14 28 30 14 20 30 30 33 36 38 37 37 37 35 35 35 34 32 28 25 24 23 21 22 22 22 23 22 22 20 20 20 19 19 18 18 17 16 16 15 15 14 14 13 13 12 11 12 11 10 10 10 11 10 10 9 9 8 8 8 7 6 6 6 6 7 6 5 6 5 5 5 6 6 6 6 6 7 9 10 10
5 6 6 14 24 18 21 28 30 29 24 22 24 25 25 19 14 22 17 9 21 28 29 33 33 35 36 36 37 37 37 36 35 32 27 24 23 22 21 22 22 22 22 22 21 21 21 20 20 19 18 17 16 16 15 15 15 14 14 13 13 13 12 12 10 9 10 11 11 10 10 9 9 8 8 8 7 7 6 6 6 7 6 6 6 7 7 7 8 9 10 10 11 12 12 13 13
4 7 3 9 18 20 25 29 29 26 23 26 26 21 18 21 20 14 9 13 24 28 30 32 32 35 36 36 37 36 36 35 34 31 27 23 21 21 22 22 22 22 22 22 22 22 21 20 20 19 18 17 16 16 15 15 15 15 15 14 13 13 13 12 11 11 11 11 10 10 10 9 8 7 7 7 7 7 6 6 6 7 7 7 8 8 9 10 11 12 13 13 14 15 15 16 16
5 5 7 10 15 22 27 27 28 26 25 29 22 12 15 23 20 7 10 22 26 29 31 32 33 35 35 35 36 36 36 35 34 31 27 24 23 23 22 23 23 23 22 22 22 21 21 20 19 19 18 18 17 17 16 16 16 16 15 15 14 13 13 12 11 12 11 11 10 9 10 9 8 8 7 7 7 7 6 7 7 8 9 9 10 11 12 13 14 15 16 16 15 15 16 16 16
11 5 13 15 20 22 28 26 26 26 23 29 21 9 16 23 15 5 12 26 30 31 31 32 35 35 35 35 35 36 36 35 33 30 28 27 27 25 23 24 24 22 21 21 22 20 20 20 19 18 18 18 18 17 17 17 16 16 16 15 14 13 12 12 11 11 11 10 9 9 9 9 9 9 8 8 8 8 8 8 8 9 10 11 13 14 15 16 16 17 16 15 14 14 15 16 15
7 15 13 14 20 18 25 23 23 23 14 25 26 11 12 12 7 10 22 29 32 34 31 33 34 33 34 34 34 35 35 34 32 30 31 30 28 26 25 25 24 22 22 22 22 20 21 20 19 19 19 19 19 18 17 17 16 15 15 14 13 12 12 12 12 11 10 9 8 8 9 10 10 10 10 10 10 9 9 9 10 12 12 13 15 16 16 17 17 16 14 14 14 14 15 15 14
4 18 11 9 11 11 18 18 23 20 11 26 29 11 4 2 5 20 31 32 33 34 32 32 32 32 33 33 34 35 35 34 33 33 31 28 26 26 26 24 22 21 21 21 21 22 21 20 19 19 19 20 19 18 17 16 15 14 14 14 12 12 12 13 12 11 10 8 8 9 9 9 10 10 11 10 10 10 11 11 12 13 14 15 15 17 15 13 13 13 11 12 13 14 15 14 13
6 7 7 9 7 5 11 14 21 17 17 31 22 5 4 3 10 26 32 34 33 30 31 31 31 32 33 33 35 36 36 35 35 34 31 27 25 25 25 23 21 20 18 18 20 21 21 20 20 20 21 21 19 17 17 16 15 14 14 14 13 12 12 12 12 10 9 8 9 9 9 9 9 10 11 11 10 11 11 12 13 14 15 15 14 14 13 11 11 11 11 11 12 12 13 13 13
5 1 4 7 5 7 7 8 16 12 18 24 10 2 6 3 14 28 33 35 34 29 29 31 31 32 33 33 35 36 37 36 36 34 31 28 26 26 24 23 22 19 19 18 17 18 19 19 19 20 21 20 18 17 17 16 15 15 14 13 13 12 12 12 10 9 9 8 9 9 10 9 10 12 12 11 10 11 12 13 14 13 13 13 12 11 12 11 11 10 10 11 11 11 12 12 13
5 2 2 3 5 7 6 7 12 14 16 14 4 3 5 5 15 28 33 34 33 30 29 30 31 32 33 34 35 37 37 36 36 34 32 29 27 26 25 24 22 20 20 19 16 16 17 17 18 19 19 18 17 17 17 16 14 14 13 12 12 12 12 12 11 10 9 10 10 10 11 11 12 12 12 12 11 11 13 12 12 11 10 11 10 9 10 10 10 10 9 10 10 10 11 11 11
2 4 5 5 5 6 5 7 10 15 17 10 2 6 4 5 17 28 32 33 32 28 28 30 31 32 33 34 36 37 36 36 36 35 34 31 28 26 25 24 23 21 21 19 17 17 16 16 17 16 16 16 16 16 16 15 14 13 12 12 12 13 13 12 11 10 10 11 12 11 11 13 14 14 11 11 11 11 10 9 9 10 9 9 8 8 9 9 10 10 10 11 11 11 10 10 10
2 2 4 4 8 10 7 6 11 11 14 8 4 8 7 7 18 28 31 33 31 26 28 31 32 32 33 35 35 36 36 36 36 36 35 33 30 27 26 26 24 22 21 19 18 17 15 15 15 15 15 15 15 15 15 15 14 13 13 14 14 14 14 13 12 12 12 12 12 12 12 14 15 15 11 9 10 10 8 8 9 9 8 8 8 9 10 10 11 11 11 11 11 11 10 10 10
3 5 5 3 8 11 10 10 10 11 10 7 7 7 7 9 16 25 30 34 30 27 30 32 33 34 34 35 35 36 37 37 36 35 33 32 30 28 27 27 26 24 22 21 20 19 16 15 14 14 14 15 14 14 14 14 14 14 15 16 16 16 15 15 15 15 13 12 12 12 13 16 15 12 8 7 8 8 8 8 8 8 8 9 9 10 10 10 10 10 10 10 10 10 10 10 10
7 6 6 7 9 10 12 11 11 14 8 5 10 9 9 13 15 20 28 33 30 28 29 30 31 33 34 35 36 37 37 37 35 33 31 29 30 28 26 26 26 25 23 22 22 21 19 17 15 15 15 14 14 14 15 16 17 18 18 19 18 17 16 16 16 15 14 12 11 11 14 15 11 7 5 5 7 8 7 8 8 9 10 11 10 9 8 8 8 8 8 9 9 9 9 10 11
6 2 3 6 9 10 11 9 11 14 8 5 9 10 12 16 16 18 27 29 24 24 24 26 30 32 34 36 36 38 38 37 35 33 31 29 30 28 26 26 26 26 24 23 23 23 21 18 17 16 15 15 15 17 18 18 19 20 20 20 19 17 16 16 15 14 13 12 11 11 12 10 5 5 5 5 7 8 8 8 8 10 11 9 8 8 7 8 8 7 7 8 8 8 7 8 10
4 2 3 4 5 6 5 8 12 12 6 4 5 8 12 15 16 18 23 22 19 24 25 26 30 32 35 36 37 39 38 37 35 34 33 30 31 31 28 28 27 28 27 25 24 24 22 20 19 18 16 16 17 17 18 19 19 18 18 17 16 16 16 15 13 12 12 11 11 11 10 7 6 7 7 8 10 10 9 10 10 11 10 8 7 7 7 8 7 7 6 7 8 9 8 7 9
4 2 3 3 4 1 1 5 13 10 4 4 7 9 9 11 14 15 20 21 22 29 31 31 33 32 32 34 36 38 37 36 36 36 35 33 32 33 31 30 29 28 27 26 25 24 23 22 20 19 18 18 18 18 19 18 17 16 15 14 13 13 14 13 11 11 11 11 11 11 10 9 10 10 10 11 12 11 11 11 12 13 11 9 8 7 7 7 7 7 7 7 8 9 9 8 9
4 3 4 3 3 3 2 4 11 6 2 5 7 4 3 5 8 9 17 23 22 28 33 33 35 35 36 38 38 38 37 36 37 37 37 34 34 35 35 33 30 29 29 28 27 26 25 24 22 21 20 19 19 19 18 17 16 15 14 13 12 12 12 12 12 12 12 13 13 12 11 12 12 12 12 13 13 12 12 13 14 12 9 7 6 6 7 8 9 9 9 9 9 9 9 8 8
4 5 5 3 4 5 3 4 9 3 4 5 8 4 3 4 7 7 12 17 17 22 27 27 31 36 38 38 38 39 39 39 39 39 39 36 36 37 37 34 32 31 31 31 29 28 27 26 23 21 20 20 20 19 18 17 16 15 15 15 15 15 15 15 15 14 14 15 14 14 14 14 14 13 13 14 13 13 13 13 13 9 6 5 6 7 8 9 10 10 10 10 9 9 9 8 7
3 4 8 7 7 6 4 8 10 5 2 4 8 4 5 4 8 9 8 10 13 15 19 22 28 32 32 31 34 37 39 40 40 41 40 39 38 38 37 36 34 33 32 31 29 28 27 26 25 22 21 21 20 20 19 18 17 17 17 18 18 18 17 17 16 15 15 16 16 15 15 14 14 13 13 13 13 13 13 12 10 7 5 5 6 7 8 9 9 9 8 8 7 7 8 8 7
3 6 8 9 8 7 9 12 10 5 4 7 9 6 4 3 8 11 8 9 12 11 13 20 26 29 30 32 34 36 38 39 40 40 40 40 39 39 39 38 36 34 32 31 29 28 27 26 25 24 23 22 21 21 20 19 18 18 19 18 18 17 16 16 15 14 14 15 15 15 13 12 12 12 12 11 12 12 10 7 6 5 5 5 5 5 6 7 6 6 5 5 5 5 6 7 7
4 6 7 8 8 8 11 12 9 5 3 3 5 3 2 3 8 9 9 9 11 11 12 16 24 29 31 34 36 37 39 40 41 41 41 41 41 41 41 39 38 35 32 31 31 29 28 26 25 25 25 23 22 22 21 21 21 19 19 18 17 16 15 16 15 13 13 14 14 13 12 11 11 10 10 11 11 9 7 4 4 3 3 3 3 4 4 4 4 3 3 4 5 5 4 4 5
7 7 7 7 9 10 10 10 8 5 5 4 6 3 3 4 5 5 9 10 12 15 16 16 22 30 32 35 38 39 41 42 42 43 42 42 43 43 42 40 38 35 33 32 31 30 28 26 26 27 26 25 24 24 24 23 22 20 19 18 16 15 15 16 15 14 14 15 15 14 13 12 11 11 11 11 9 8 7 5 5 4 3 4 6 6 4 3 3 3 3 4 5 4 4 3 3
6 4 4 3 4 7 7 7 6 4 5 7 11 9 4 4 3 5 7 8 12 16 17 17 23 31 34 36 40 40 41 42 42 44 44 43 43 43 42 40 37 35 33 32 30 30 29 28 28 29 28 27 26 26 26 24 22 21 20 18 16 16 17 17 16 16 17 17 16 15 15 14 13 12 12 11 8 8 7 6 6 5 5 6 7 6 5 4 4 4 5 5 5 4 4 3 3
4 2 2 1 3 2 0 1 4 5 4 8 14 16 9 4 4 5 8 12 18 17 14 15 20 28 34 38 40 41 41 42 43 44 44 44 43 42 42 40 38 36 34 33 32 31 31 30 30 30 29 29 29 29 27 25 23 21 20 17 16 17 18 18 17 18 19 19 19 18 17 16 14 13 13 11 9 9 8 8 7 7 7 8 8 6 5 5 5 5 6 6 5 5 4 3 3
4 2 3 1 4 4 4 4 3 5 5 7 13 15 10 7 5 7 13 18 20 18 15 16 19 27 36 38 40 41 42 43 44 44 44 43 43 43 43 42 40 38 36 35 34 33 33 33 32 32 32 31 31 30 28 26 24 22 20 18 17 17 16 16 16 17 19 20 19 18 17 16 15 15 14 12 11 10 10 10 9 8 8 8 8 6 5 5 5 6 6 6 6 6 5 4 4
5 4 4 3 3 2 0 2 1 4 6 6 11 13 8 7 7 10 17 19 18 18 21 23 25 31 37 38 40 41 42 43 43 44 45 45 46 46 46 44 42 40 38 37 35 35 35 35 35 35 35 34 33 32 30 28 26 23 21 19 17 16 15 15 15 16 18 18 18 17 17 16 16 15 14 13 12 12 11 11 10 8 7 8 8 7 5 5 5 5 5 6 6 6 6 6 6
6 6 5 6 3 2 3 3 1 3 6 5 9 12 5 4 5 10 16 21 25 28 32 34 35 37 39 41 43 41 41 43 44 45 46 47 48 48 47 46 44 42 40 38 37 37 37 37 37 37 37 36 35 34 31 29 27 25 22 20 18 16 15 15 16 17 18 17 17 17 16 16 15 15 14 13 12 12 12 11 9 8 7 8 8 7 6 6 6 6 6 6 6 6 7 7 7
6 5 6 6 5 5 4 4 4 5 5 2 3 7 6 4 6 10 17 26 32 36 38 35 31 34 38 40 41 40 40 42 44 45 47 48 49 48 47 46 45 43 41 40 39 39 39 39 39 40 39 39 37 36 34 32 29 27 24 22 19 17 16 16 17 18 18 17 17 17 17 16 15 14 13 13 12 12 11 10 8 7 8 8 7 7 7 7 7 7 7 7 7 7 8 8 8
4 4 5 5 7 6 3 4 6 5 2 0 2 4 5 5 6 5 9 20 23 26 30 25 21 25 31 33 35 38 40 42 43 46 48 49 47 46 47 46 45 44 42 42 42 42 42 42 42 42 41 41 39 38 36 33 31 28 26 24 21 19 17 18 19 19 17 17 17 17 17 15 14 14 13 13 12 11 10 9 8 8 8 7 6 7 8 8 8 9 9 8 7 7 8 8 9
2 4 4 5 6 7 3 3 1 3 3 2 2 4 4 3 5 6 2 9 11 13 19 20 21 25 28 31 34 38 41 43 45 48 50 50 47 47 47 46 46 45 44 45 44 44 44 44 44 44 43 42 41 39 37 35 32 30 28 26 24 21 20 20 20 19 17 17 17 17 16 14 13 13 12 12 12 11 9 8 8 8 7 5 5 6 8 9 10 10 11 10 9 8 9 9 9
4 5 7 4 2 3 3 2 1 3 3 4 2 5 4 2 4 5 3 5 10 12 15 17 19 23 27 32 37 40 43 44 46 49 50 48 47 48 48 48 47 46 46 47 46 46 45 45 46 46 45 44 43 42 39 37 35 33 31 28 26 24 22 21 20 18 17 17 17 17 15 14 12 11 11 11 11 10 9 8 7 6 5 4 4 5 6 7 8 9 10 11 11 10 11 10 10
5 4 5 5 2 1 1 3 3 2 3 3 3 3 4 4 5 4 2 8 10 11 12 12 15 21 28 33 38 41 42 42 44 46 47 46 46 47 48 48 48 47 47 47 47 47 46 46 47 47 47 46 44 43 41 39 37 35 33 30 27 25 24 22 20 18 18 18 17 16 14 12 11 11 11 11 11 11 9 6 4 4 4 4 4 5 5 6 6 7 8 9 10 10 12 12 11
1 1 3 3 3 5 4 3 4 4 3 3 3 3 3 6 6 7 9 11 11 11 11 12 17 26 33 35 37 39 39 40 43 45 47 48 47 48 49 49 49 48 48 48 48 48 48 48 48 48 47 46 45 44 43 41 39 37 34 30 28 27 26 23 21 20 19 18 16 15 13 12 11 11 11 11 12 12 9 6 4 4 4 4 5 5 6 7 8 9 9 10 10 10 12 12 12
3 3 4 3 2 2 2 2 3 4 4 3 3 3 5 6 5 8 11 10 11 14 15 15 18 27 33 34 36 38 39 42 44 46 48 48 48 48 49 49 49 48 48 48 49 49 49 49 49 49 48 47 47 46 45 43 42 40 37 32 29 29 27 24 21 20 19 17 16 15 14 13 13 12 11 11 11 11 9 7 6 5 4 5 6 7 8 8 10 11 12 12 12 11 12 13 13
8 7 7 6 5 4 3 3 1 2 3 5 5 4 7 6 4 7 8 7 8 13 15 14 18 27 31 35 38 40 42 44 46 47 48 47 47 48 48 48 48 48 48 49 49 49 50 50 51 51 50 49 49 48 47 46 45 43 40 34 30 30 28 24 21 20 19 17 17 16 15 15 14 13 12 10 9 9 8 8 7 5 5 6 8 9 9 10 11 12 14 14 14 13 14 14 14
Wind_Direction
159 160 170 176 180 182 198 204 181 302 69 70 77 84 68 91 113 116 123 126 101 54 127 137 141 134 119 122 125 96 48 35 115 93 132 146 148 146 142 138 132 131 131 132 131 130 131 133 136 138 137 137 138 138 137 137 138 138 137 137 136 137 140 140 139 137 137 137 138 139 140 144 148 151 152 153 152 151 148 144 141 139 139 138 135 130 127 123 118 114 110 108 100 80 56 33 29
161 159 171 178 177 176 210 208 119 13 59 57 14 60 94 83 83 106 126 128 106 109 119 120 113 107 108 112 111 90 37 31 105 113 126 142 146 147 143 139 136 133 132 133 133 132 132 133 136 138 138 139 139 136 136 137 137 137 137 137 137 140 142 141 142 142 142 141 141 141 143 147 150 154 154 155 154 152 149 145 143 143 144 143 140 135 131 126 122 118 112 106 90 61 32 16 20
160 162 174 177 180 193 250 214 112 66 73 74 22 37 106 94 82 84 95 106 116 116 114 106 92 89 101 97 71 79 63 74 113 119 128 145 148 146 145 141 140 136 134 134 134 134 134 135 137 139 139 139 138 136 136 136 136 136 137 137 139 141 143 143 144 144 145 145 145 146 148 151 153 155 155 156 156 154 151 148 147 148 149 149 145 138 131 127 123 116 105 90 64 36 14 11 16
171 168 178 181 177 210 273 54 117 99 103 118 83 100 113 104 102 90 97 109 123 119 112 100 73 68 93 94 81 87 101 110 123 129 135 149 148 145 146 144 142 138 136 136 136 137 137 138 139 139 137 137 137 137 137 138 139 139 138 138 140 141 143 145 145 147 148 149 151 152 153 154 155 156 158 158 157 157 155 153 152 154 156 153 145 136 130 124 118 104 85 63 40 18 9 8 8
192 186 188 188 165 276 305 68 71 98 135 152 120 147 122 112 114 105 100 105 115 111 107 104 80 88 91 81 78 97 120 130 134 138 140 148 148 144 144 145 144 141 138 137 137 139 139 139 139 138 136 136 137 137 139 140 141 140 140 140 140 142 144 146 146 148 148 149 150 150 152 153 156 158 160 159 158 159 158 158 158 159 157 150 142 133 127 117 103 80 56 37 28 21 10 4 1
195 196 197 207 237 299 346 78 76 88 164 156 126 146 133 120 119 109 98 92 95 104 107 108 111 105 86 60 84 109 122 137 141 141 142 147 148 144 144 146 146 142 140 139 138 140 141 140 139 139 138 138 138 139 141 141 141 140 139 140 140 143 144 145 145 145 145 146 147 148 150 152 154 156 156 157 159 160 160 161 160 159 151 145 140 133 129 115 92 56 33 13 19 30 11 358 352
185 190 191 216 257 277 94 98 116 99 32 141 129 141 134 122 118 111 99 92 88 98 106 109 113 104 79 77 92 92 115 145 144 143 144 146 148 145 146 148 146 143 142 141 140 142 142 142 141 142 142 141 142 142 142 142 141 140 140 140 141 142 143 144 144 145 146 147 148 149 149 150 150 150 152 154 157 159 159 158 156 153 147 145 145 144 139 117 85 36 22 360 1 19 13 358 345
185 184 184 202 323 40 85 88 116 125 107 114 125 132 131 130 124 116 107 108 98 99 111 112 107 94 74 104 95 92 133 148 145 144 146 146 148 146 148 149 147 145 144 145 144 144 143 144 145 147 146 143 144 144 143 144 142 142 142 142 143 144 145 146 147 149 151 151 151 149 147 146 146 146 149 152 155 156 155 153 153 153 154 155 158 161 142 67 36 14 2 349 343 349 354 348 335
194 195 202 202 61 43 73 78 101 130 127 121 124 131 132 133 127 119 110 96 108 115 121 121 94 93 105 98 99 131 143 151 147 145 147 147 149 148 150 151 150 148 145 147 147 147 146 146 148 149 148 145 147 147 146 146 145 145 145 145 146 147 148 148 149 150 152 153 152 150 148 147 146 146 149 154 154 153 152 154 157 161 164 167 174 169 44 13 7 357 343 337 334 331 331 327 320
196 208 224 150 83 50 67 85 120 123 127 131 131 137 134 132 123 116 112 102 116 115 120 134 103 115 118 97 97 145 153 153 149 148 149 147 148 149 152 153 152 150 149 150 150 150 150 151 151 149 149 150 151 149 147 148 147 146 146 147 147 147 147 148 149 149 151 153 154 154 153 152 151 151 154 155 155 156 158 161 166 170 172 173 178 141 36 359 345 336 329 321 317 312 310 309 310
191 216 224 75 68 73 125 117 120 120 126 126 122 135 134 128 117 107 109 107 114 112 113 114 108 116 111 94 104 145 154 155 153 150 150 149 150 152 154 155 155 154 152 153 153 154 155 156 155 152 153 154 154 151 150 150 149 148 148 148 147 148 147 148 150 150 152 153 155 157 157 157 156 157 158 159 160 164 165 168 171 173 171 168 176 181 239 297 306 311 313 308 305 302 301 304 307
208 207 173 81 102 131 157 130 112 119 126 125 128 140 136 128 117 117 121 117 126 123 121 120 129 126 106 93 127 150 155 155 156 151 152 152 152 154 155 157 157 157 156 156 156 156 157 159 159 158 158 157 156 154 154 152 151 151 150 150 148 148 148 149 151 152 154 154 155 155 157 157 157 160 162 165 167 170 170 170 172 175 180 183 200 228 252 273 288 296 302 303 304 303 305 308 309
221 165 109 86 145 125 112 126 123 123 132 144 149 147 141 133 129 136 128 129 139 133 140 147 141 128 101 124 141 156 158 157 157 153 153 154 155 156 156 158 159 160 159 158 158 158 159 160 161 162 161 160 159 157 157 155 155 155 152 151 150 150 149 149 151 153 154 153 154 154 155 155 157 159 162 165 168 171 170 170 176 188 202 214 229 253 270 284 292 297 303 306 309 311 314 315 315
227 168 107 106 101 111 117 131 137 133 161 170 147 148 146 139 143 141 133 135 145 141 141 147 143 124 116 131 149 167 163 160 159 155 155 154 157 157 159 161 162 163 161 161 161 161 162 163 164 164 164 163 162 162 161 160 161 158 155 154 154 153 151 151 152 154 156 156 156 157 158 160 161 161 163 165 167 170 171 179 193 206 230 248 254 266 275 287 294 298 305 309 315 319 321 323 322
235 272 87 122 72 105 155 153 155 142 168 179 152 153 145 140 146 142 141 140 137 144 136 147 148 125 152 159 169 173 165 162 160 157 157 155 158 159 161 164 165 166 165 166 166 167 167 167 168 167 167 167 166 166 165 166 166 163 160 159 158 155 153 154 155 157 158 159 160 162 165 169 170 171 172 174 176 180 184 195 203 214 238 259 266 272 278 285 292 296 302 310 317 321 327 331 332
236 238 67 113 131 149 180 161 149 142 166 175 161 150 120 131 143 139 152 141 129 144 137 157 161 131 173 171 167 167 162 160 159 159 161 161 163 162 164 167 169 171 170 172 172 173 172 172 173 171 171 170 170 171 170 170 169 168 165 163 160 158 157 157 159 159 160 162 166 169 172 176 176 179 181 182 185 191 197 205 216 231 251 263 271 274 277 285 293 301 307 314 316 319 330 336 340
233 224 57 78 172 186 183 160 157 155 164 162 161 147 122 138 142 128 155 138 136 150 149 167 183 198 169 167 161 160 159 160 159 162 166 168 169 168 170 172 173 174 175 176 176 177 176 176 176 176 176 174 174 174 174 173 172 171 169 165 164 164 164 163 164 165 167 169 173 178 181 182 181 184 187 190 193 197 205 215 233 254 265 268 272 273 276 282 293 307 318 321 320 325 333 340 344
206 113 97 211 194 196 183 169 168 153 155 160 161 151 139 146 137 129 136 129 137 147 136 157 175 166 164 160 156 158 160 160 161 167 171 173 173 174 175 177 177 177 178 178 179 179 180 180 180 180 180 179 178 178 177 175 173 173 172 169 169 170 170 171 172 172 176 178 182 185 187 188 189 194 198 202 210 211 217 229 250 267 272 277 278 278 283 287 296 311 324 327 327 328 333 340 345
180 115 134 220 205 202 186 158 157 155 155 159 159 154 145 142 141 140 137 135 141 130 123 136 131 145 158 157 157 160 160 160 166 171 174 174 175 177 176 178 180 181 181 180 180 181 182 182 183 183 183 182 181 181 180 178 175 175 175 174 174 175 176 179 179 179 181 184 188 192 195 201 205 215 219 222 233 235 242 250 262 275 280 289 290 290 297 298 300 310 322 330 327 324 326 332 335
199 165 161 228 209 215 185 156 159 160 154 153 154 152 144 142 147 147 142 143 149 143 143 141 138 149 155 159 161 161 161 164 171 174 176 176 178 179 178 179 181 183 182 180 179 181 183 184 185 184 185 186 184 184 183 182 180 178 179 178 181 181 181 184 186 187 189 190 194 200 205 214 225 232 237 238 241 247 260 269 273 281 286 295 300 306 312 302 297 303 316 323 320 318 320 325 328
207 177 197 218 189 202 186 162 161 158 152 152 148 144 142 147 149 146 141 136 157 175 166 159 156 157 157 162 165 163 166 172 175 179 181 179 181 182 184 184 181 182 182 181 181 181 182 184 186 185 187 187 187 187 185 185 184 184 185 184 187 189 192 192 194 197 199 201 202 207 212 219 228 232 239 241 245 252 265 277 280 285 291 299 302 312 315 299 293 295 308 316 317 319 321 324 326
221 218 226 209 175 180 186 165 157 156 151 149 145 143 149 152 152 152 150 150 189 186 178 168 163 162 162 164 165 167 172 176 179 184 184 183 182 182 186 188 185 184 184 184 182 181 183 184 186 186 187 188 189 191 188 188 189 190 193 192 193 196 204 204 204 206 205 206 207 214 218 221 224 229 239 241 248 257 263 271 277 284 290 295 295 306 309 298 293 293 301 311 317 321 322 321 322
236 250 248 208 185 175 174 162 155 155 150 148 151 151 152 150 157 163 161 171 185 181 176 169 166 166 163 162 165 171 176 178 181 185 187 188 187 185 186 189 189 186 187 186 182 183 184 184 186 187 190 190 191 193 193 195 194 197 200 201 201 200 209 213 212 211 209 211 213 218 221 221 222 229 238 240 248 254 255 259 270 283 289 297 293 291 291 287 286 285 291 296 303 308 310 309 308
220 257 284 191 177 164 162 158 154 154 149 150 151 150 154 152 159 170 169 169 169 170 170 166 165 166 163 165 169 174 178 180 183 187 190 190 192 191 189 191 189 188 189 188 186 186 187 187 188 189 192 193 194 195 198 201 201 204 206 208 207 205 211 216 218 215 214 218 220 223 225 224 223 230 240 244 253 253 253 257 270 284 291 297 286 280 278 281 285 286 291 294 299 301 302 302 299
221 224 226 157 152 147 152 150 147 144 139 143 143 145 158 156 151 162 164 150 158 162 164 162 162 166 167 170 173 177 180 182 186 188 191 193 193 192 193 194 192 192 192 190 190 190 190 190 191 192 194 195 197 199 202 205 206 209 211 214 212 211 213 215 220 217 216 218 221 226 230 234 234 244 255 257 261 259 256 259 272 282 285 288 280 279 282 286 291 292 295 297 299 299 299 298 295
290 191 150 132 128 135 142 139 139 135 135 138 133 131 146 147 138 125 152 152 157 159 159 162 163 167 171 174 177 180 182 184 187 189 193 196 196 198 199 198 197 198 195 194 195 194 193 194 196 196 196 198 200 202 205 206 209 210 213 216 214 216 214 213 217 216 216 219 224 230 236 242 246 255 264 266 268 264 260 261 271 278 280 285 287 289 290 291 294 295 297 299 299 300 301 299 298
316 154 138 134 131 135 138 133 132 130 137 139 130 124 137 144 138 115 158 156 156 156 159 164 165 168 172 176 180 183 185 188 190 192 195 198 200 203 203 202 202 200 198 198 200 198 197 199 200 200 199 201 202 204 205 204 207 209 211 214 215 215 212 212 217 219 221 224 229 234 241 248 254 263 267 270 271 269 269 270 276 280 283 288 291 292 292 291 292 291 292 297 298 300 304 305 304
337 138 125 127 130 132 135 130 131 126 132 137 127 116 129 142 152 152 159 158 159 158 160 166 167 171 174 178 182 185 189 191 194 195 198 201 203 203 202 201 200 199 200 199 200 201 201 202 203 204 204 203 204 206 203 203 205 205 207 211 213 213 213 217 220 223 226 229 234 238 246 254 262 267 269 272 276 278 278 281 286 286 288 288 289 289 289 291 292 289 289 298 301 301 306 308 308
101 134 112 123 120 127 140 135 138 129 135 137 122 104 128 174 165 155 158 160 162 160 161 168 170 174 176 180 184 187 192 194 197 199 202 205 203 202 201 199 198 199 201 199 201 201 202 205 205 206 206 205 207 207 206 206 203 202 205 207 210 213 217 221 222 226 229 232 239 244 250 255 262 265 267 272 276 282 284 287 290 288 286 283 285 286 286 291 294 293 296 302 300 301 307 309 309
121 137 120 129 102 145 163 145 141 133 149 145 124 114 224 268 156 156 160 161 161 161 165 170 173 176 179 183 186 190 195 197 199 202 206 207 204 203 200 199 198 197 197 200 202 201 203 205 206 208 207 208 208 209 211 210 203 202 204 206 211 216 220 224 226 230 230 235 244 250 251 253 258 258 263 272 276 278 280 283 284 285 287 284 285 289 292 298 300 300 303 301 299 302 309 312 312
109 281 123 133 129 177 210 169 144 135 163 158 118 129 202 205 161 160 163 165 164 165 170 174 176 180 182 186 189 194 198 200 203 206 209 210 207 205 203 202 200 198 198 198 199 201 204 204 204 207 208 210 210 209 213 210 204 203 205 208 213 219 225 227 230 235 237 240 245 249 251 252 256 256 256 261 269 274 274 277 281 285 292 292 293 298 303 306 305 304 304 301 302 306 310 314 314
123 167 151 174 158 169 231 220 162 145 176 190 101 105 187 176 169 166 166 169 168 168 175 178 181 184 187 190 193 198 202 205 207 210 211 210 210 208 206 206 205 203 201 199 198 199 201 203 204 206 209 213 211 209 212 211 207 206 209 213 220 227 231 234 235 240 247 247 246 247 251 255 261 266 261 254 260 271 274 277 284 289 291 296 300 301 302 303 301 302 302 304 307 310 310 308 306
136 162 177 191 160 164 202 230 212 164 168 207 148 133 174 170 175 171 169 173 172 172 178 182 185 188 190 193 197 201 204 207 209 211 213 210 210 210 209 209 209 206 204 202 200 198 198 201 205 209 212 215 215 212 212 212 211 213 219 223 230 234 236 241 242 245 252 251 251 252 253 256 258 262 265 266 270 277 282 283 287 292 292 299 302 297 298 296 297 299 301 306 309 311 309 303 301
294 199 176 186 162 166 172 199 233 195 165 183 154 149 169 165 172 173 175 177 175 176 180 184 188 189 192 195 198 202 204 207 208 209 212 212 210 212 211 211 210 208 206 204 203 203 203 203 206 211 214 217 219 216 215 217 219 223 229 233 238 238 239 246 248 249 252 252 256 259 258 258 259 262 267 277 280 281 289 291 289 293 294 297 295 291 292 293 294 297 301 306 308 310 307 302 302
204 195 174 180 169 173 181 179 198 198 181 164 141 151 166 158 168 176 179 179 179 182 183 185 188 190 193 195 198 202 205 209 209 209 211 211 209 210 211 211 211 209 206 205 206 207 209 212 213 213 213 216 220 220 218 221 227 232 235 237 237 236 239 244 247 250 253 257 261 264 264 262 263 266 265 267 278 287 293 293 290 290 289 286 283 285 289 291 294 298 303 307 309 307 302 298 299
182 200 180 169 175 185 191 184 176 176 175 160 157 161 163 163 172 180 182 183 185 186 185 185 188 190 192 194 197 200 204 208 207 206 208 208 208 208 210 211 211 210 208 207 208 208 210 215 217 216 214 214 219 221 217 220 228 233 234 233 233 234 239 243 246 251 254 260 263 264 268 269 263 251 252 267 285 297 294 284 279 282 284 281 280 286 291 294 296 302 309 312 312 307 299 295 294
174 214 248 192 182 193 195 183 174 168 161 187 178 161 164 171 177 183 182 185 189 187 186 188 189 191 192 194 197 198 203 206 204 205 207 210 211 211 212 212 211 210 210 209 209 210 212 215 221 224 220 217 220 219 217 220 225 229 231 231 234 237 242 245 247 251 253 256 258 258 264 269 249 233 256 275 285 292 280 267 273 289 293 289 289 291 293 297 299 305 315 319 319 316 306 294 293
195 203 270 251 205 201 196 169 174 172 152 186 181 160 174 179 179 183 181 184 193 189 187 191 193 194 195 196 198 200 203 205 206 206 206 208 211 213 213 211 211 211 211 210 211 214 215 218 226 230 228 222 221 221 221 223 227 231 234 236 241 242 244 248 250 251 250 248 244 242 246 248 242 251 265 274 284 287 274 264 278 296 295 289 292 293 295 300 304 311 318 322 321 320 317 306 302
218 187 146 252 264 217 97 162 173 172 144 175 178 172 186 186 182 185 185 189 196 193 191 194 195 195 197 199 199 201 202 203 206 206 205 205 207 210 212 212 213 214 214 213 214 217 219 222 228 231 232 227 224 225 225 228 232 235 238 241 245 244 242 240 238 237 233 228 223 222 228 238 246 256 264 273 282 284 278 274 284 294 287 277 280 288 296 301 308 315 315 317 315 312 313 310 308
212 184 157 212 239 187 230 183 168 165 109 159 160 158 190 190 193 200 197 198 199 197 198 198 197 197 200 202 202 201 201 201 203 204 205 205 206 208 211 213 215 215 216 216 217 219 222 226 229 230 231 228 226 228 229 231 233 235 236 235 233 233 230 222 218 220 219 216 216 219 225 233 242 252 265 275 280 283 282 281 286 291 284 272 273 285 298 304 310 311 307 309 309 307 307 304 304
239 201 189 199 197 211 245 151 146 88 24 119 115 64 324 206 202 218 207 207 209 204 202 201 202 204 204 204 203 202 202 202 201 202 205 207 208 209 211 214 214 215 216 218 220 221 224 226 228 229 228 226 227 228 230 230 227 226 224 222 220 221 222 218 217 221 221 221 225 231 233 236 242 253 267 274 276 279 279 281 283 283 276 280 283 288 294 295 296 296 296 302 305 308 309 306 308
278 224 202 205 206 203 159 136 138 100 357 185 137 129 280 243 207 217 208 208 217 209 204 206 207 208 208 206 205 205 205 205 204 204 206 208 210 210 211 213 213 214 216 218 221 222 225 226 226 228 225 223 225 227 225 223 221 219 218 219 220 224 227 226 227 230 231 233 237 239 239 238 244 254 260 262 268 273 274 276 274 263 257 261 260 264 269 271 276 281 286 295 302 305 307 307 311
264 237 200 203 217 199 162 152 152 150 204 206 171 172 243 254 221 219 210 213 219 215 210 211 209 208 209 208 208 207 205 205 206 207 208 209 210 210 210 211 212 214 215 217 220 222 224 225 226 226 223 221 221 221 219 217 219 220 222 226 229 234 237 234 236 237 236 237 237 236 236 240 247 251 251 256 267 271 269 262 253 246 237 232 237 250 253 255 264 275 286 297 300 296 296 300 303
234 230 177 189 222 217 183 166 174 185 138 161 183 154 109 220 227 205 195 215 224 226 225 219 213 210 209 209 210 208 206 205 205 206 208 209 210 210 210 211 213 214 215 216 218 220 222 223 223 221 219 217 217 217 216 215 219 222 225 230 233 238 241 241 243 240 235 235 234 236 243 251 253 247 251 265 268 259 247 235 245 258 246 248 291 300 271 250 254 270 287 298 299 294 291 294 298
240 223 173 190 219 219 196 176 190 182 116 158 209 170 119 247 253 174 180 210 223 228 227 221 215 211 208 209 210 210 208 207 205 206 207 209 210 211 211 212 213 215 216 217 217 217 219 219 217 216 214 213 213 213 213 214 218 222 226 231 233 235 237 238 243 242 239 240 241 246 254 258 256 250 258 267 255 232 226 233 246 262 274 296 317 316 286 255 259 278 291 295 297 299 303 300 297
237 204 164 176 223 222 201 181 181 148 147 192 201 188 189 263 258 162 171 209 224 228 226 221 216 212 209 209 209 210 209 207 207 207 207 209 210 211 212 212 213 216 218 219 217 215 215 214 212 212 210 209 210 210 211 213 215 219 224 228 230 231 230 231 237 241 244 247 249 253 257 258 254 253 260 264 245 221 225 238 245 253 270 293 310 307 275 258 267 277 286 291 291 294 299 294 284
208 115 140 65 352 323 184 130 120 133 196 217 200 192 190 232 246 189 182 205 213 217 223 220 215 213 211 210 209 208 208 207 206 207 207 209 210 211 212 213 215 217 219 218 215 212 212 210 209 209 207 206 208 207 208 210 213 217 221 223 227 228 227 230 235 239 242 245 247 251 252 251 250 254 260 258 241 224 227 235 239 249 266 288 304 294 262 258 268 274 286 292 289 288 287 282 274
176 127 158 209 325 9 28 10 77 168 226 239 208 195 191 215 240 211 207 214 212 210 214 213 209 210 210 209 209 208 207 207 206 206 207 207 208 209 211 213 216 217 217 215 213 211 210 209 207 207 206 206 206 206 207 209 213 217 218 220 225 227 228 233 238 242 243 242 242 243 243 244 248 253 255 251 244 236 233 233 237 249 266 286 296 281 255 253 262 272 285 290 291 289 286 283 277
152 148 136 173 276 2 94 259 193 205 240 238 196 183 195 231 233 213 213 219 219 214 215 212 206 206 206 206 207 207 207 207 206 206 206 207 208 209 210 213 215 216 216 214 211 210 209 208 207 206 206 205 205 207 207 210 213 215 216 218 221 224 226 230 236 239 238 236 236 238 239 243 246 247 248 250 249 245 239 235 240 250 267 281 282 273 261 259 267 273 279 284 288 289 291 290 283
157 164 157 176 180 143 214 237 256 243 256 250 185 174 199 268 255 219 210 217 218 216 217 215 209 205 203 204 205 205 206 207 207 207 208 209 210 210 211 212 213 214 214 212 210 209 208 207 206 206 206 205 206 208 209 211 214 215 215 216 219 223 224 226 230 231 229 227 230 235 236 237 238 239 244 249 245 239 236 237 241 248 259 264 262 264 266 268 270 270 269 274 275 277 284 288 286
181 167 155 173 168 165 207 213 201 221 244 271 140 168 192 204 227 217 207 215 216 217 220 218 213 208 203 203 203 203 205 207 207 208 210 212 212 211 212 213 213 213 212 211 209 208 208 208 207 206 205 206 207 209 210 212 214 215 215 215 217 220 224 228 228 226 225 225 227 229 228 228 231 236 241 241 234 229 232 235 237 239 245 249 257 270 274 272 272 266 261 262 262 263 267 273 278
218 137 131 188 187 177 199 195 186 185 200 204 140 198 215 204 247 266 220 217 215 218 226 221 211 206 201 201 201 201 205 207 207 209 212 214 213 211 212 213 214 213 212 210 208 208 208 208 207 206 206 207 209 210 212 214 215 216 215 215 216 217 221 227 227 222 220 222 225 225 223 225 229 234 236 234 228 225 227 229 229 234 243 253 272 285 284 280 276 271 267 266 265 264 265 268 272
194 142 183 214 176 156 168 230 211 108 158 240 194 217 284 282 278 321 293 208 198 204 220 217 205 196 192 197 200 201 205 206 208 211 213 214 213 212 213 214 215 214 212 211 210 210 209 208 208 207 208 210 211 213 214 215 217 217 216 216 215 214 218 224 223 218 215 218 220 220 222 225 228 232 233 229 223 218 217 218 224 237 251 268 289 297 294 287 281 281 283 283 283 279 275 276 278
180 210 204 184 127 118 131 186 19 75 184 256 201 197 243 224 234 312 9 165 182 190 202 208 200 188 190 198 201 203 206 207 210 213 214 214 213 213 214 215 217 216 214 212 212 211 210 210 209 208 209 210 212 214 216 217 218 218 216 216 216 215 218 223 222 217 215 216 216 217 221 224 228 230 223 213 204 199 199 204 218 235 247 266 298 313 311 301 294 293 293 293 294 290 285 284 285
209 226 181 149 168 227 148 169 174 159 203 259 275 231 218 195 215 254 216 181 188 192 190 192 191 189 195 200 202 204 206 207 210 212 214 214 214 215 215 216 218 218 216 215 214 213 212 212 212 212 212 212 214 216 218 219 220 220 218 217 217 216 217 221 221 216 216 216 215 215 218 221 223 219 206 194 186 181 180 185 203 221 230 255 300 327 329 325 322 319 314 308 302 294 290 290 290
217 128 161 153 168 183 182 167 165 181 197 215 274 289 242 226 212 199 209 202 182 176 180 189 195 197 199 199 201 203 204 206 210 213 215 215 215 216 217 218 219 220 219 217 216 215 215 215 215 216 216 217 219 220 220 222 222 222 220 218 219 220 219 220 219 217 217 215 212 212 214 215 211 203 194 186 182 180 181 187 202 215 229 259 296 322 327 325 323 322 319 315 311 301 295 296 297
194 198 208 187 129 143 173 169 142 153 167 176 214 264 261 251 206 186 212 208 176 176 184 192 198 199 199 200 201 202 204 207 211 215 217 217 217 218 219 220 221 221 220 218 218 217 217 218 218 218 220 221 222 223 223 224 224 223 220 217 219 222 221 219 219 221 220 214 210 208 207 206 200 193 189 186 183 185 194 210 220 226 244 270 289 304 312 312 309 308 305 303 302 300 298 300 301
187 198 205 185 159 128 149 232 247 127 157 171 174 228 263 259 202 193 214 196 175 188 190 189 194 195 198 202 202 203 206 210 214 217 219 219 218 219 219 219 219 219 220 220 220 220 220 220 221 221 222 223 224 225 225 225 226 225 221 216 218 222 221 218 219 224 223 215 210 207 205 204 198 192 191 190 189 193 206 222 228 238 258 272 281 289 294 295 292 290 290 289 289 292 296 299 298